Time,TemperatureF,DewpointF,PressureIn,WindDirection,WindDirectionDegrees,WindSpeedMPH,WindSpeedGustMPH,Humidity,HourlyPrecipIn,Conditions,Clouds,dailyrainin,SolarRadiationWatts/m^2,SoftwareType,DateUTC
2013-07-31 00:00:00,66.0,57.0,-100.00,WNW,292,2.0,-999.0,71,-99.99,,,-99.99,0.000000,,2013-07-31 04:00:00,
2013-07-31 00:42:00,66.0,57.0,-100.00,WNW,292,2.0,-999.0,71,-99.99,,,-99.99,0.000000,,2013-07-31 04:42:00,
2013-07-31 00:52:00,66.0,57.0,-100.00,WNW,292,2.0,-999.0,71,-99.99,,,-99.99,0.000000,,2013-07-31 04:52:00,
2013-07-31 01:00:00,64.0,57.0,-100.00,WNW,292,3.0,-999.0,78,-99.99,,,-99.99,0.000000,,2013-07-31 05:00:00,
2013-07-31 01:43:00,64.0,57.0,-100.00,WNW,292,3.0,-999.0,78,-99.99,,,-99.99,0.000000,,2013-07-31 05:43:00,
2013-07-31 01:52:00,64.0,57.0,-100.00,WNW,292,3.0,-999.0,78,-99.99,,,-99.99,0.000000,,2013-07-31 05:52:00,
2013-07-31 02:00:00,62.0,58.0,-100.00,South,180,0.0,-999.0,85,-99.99,,,-99.99,0.000000,,2013-07-31 06:00:00,
2013-07-31 02:43:00,62.0,58.0,-100.00,South,180,0.0,-999.0,85,-99.99,,,-99.99,0.000000,,2013-07-31 06:43:00,
2013-07-31 02:53:00,62.0,58.0,-100.00,South,180,0.0,-999.0,85,-99.99,,,-99.99,0.000000,,2013-07-31 06:53:00,
2013-07-31 03:00:00,62.0,58.0,-100.00,SSW,202,1.0,-999.0,85,0.01,,,-99.99,0.000000,,2013-07-31 07:00:00,
2013-07-31 03:43:00,62.0,58.0,-100.00,SSW,202,1.0,-999.0,85,0.01,,,-99.99,0.000000,,2013-07-31 07:43:00,
2013-07-31 03:52:00,62.0,58.0,-100.00,SSW,202,1.0,-999.0,85,0.01,,,-99.99,0.000000,,2013-07-31 07:52:00,
2013-07-31 04:00:00,62.0,58.0,-100.00,South,180,1.0,-999.0,88,-99.99,,,-99.99,0.000000,,2013-07-31 08:00:00,
2013-07-31 04:42:00,62.0,58.0,-100.00,South,180,1.0,-999.0,88,-99.99,,,-99.99,0.000000,,2013-07-31 08:42:00,
2013-07-31 04:53:00,62.0,58.0,-100.00,South,180,1.0,-999.0,88,-99.99,,,-99.99,0.000000,,2013-07-31 08:53:00,
2013-07-31 05:00:00,62.0,58.0,-100.00,South,180,1.0,-999.0,88,-99.99,,,-99.99,0.000000,,2013-07-31 09:00:00,
2013-07-31 05:44:00,62.0,58.0,-100.00,South,180,1.0,-999.0,88,-99.99,,,-99.99,0.000000,,2013-07-31 09:44:00,
2013-07-31 05:52:00,62.0,58.0,-100.00,South,180,1.0,-999.0,88,-99.99,,,-99.99,0.000000,,2013-07-31 09:52:00,
2013-07-31 06:00:00,61.0,58.0,-100.00,East,90,3.0,-999.0,88,-99.99,,,-99.99,0.000000,,2013-07-31 10:00:00,
2013-07-31 06:44:00,61.0,58.0,-100.00,East,90,3.0,-999.0,88,-99.99,,,-99.99,0.000000,,2013-07-31 10:44:00,
2013-07-31 06:52:00,61.0,58.0,-100.00,East,90,3.0,-999.0,88,-99.99,,,-99.99,0.000000,,2013-07-31 10:52:00,
2013-07-31 07:00:00,61.0,58.0,-100.00,East,90,3.0,-999.0,90,-99.99,,,-99.99,0.000000,,2013-07-31 11:00:00,
2013-07-31 07:43:00,61.0,58.0,-100.00,East,90,3.0,-999.0,90,-99.99,,,-99.99,0.000000,,2013-07-31 11:43:00,
2013-07-31 07:53:00,61.0,58.0,-100.00,East,90,3.0,-999.0,90,-99.99,,,-99.99,0.000000,,2013-07-31 11:53:00,
2013-07-31 08:00:00,61.0,58.0,-100.00,East,90,4.0,-999.0,90,-99.99,,,-99.99,10.440000,,2013-07-31 12:00:00,
2013-07-31 08:43:00,61.0,58.0,-100.00,East,90,4.0,-999.0,90,-99.99,,,-99.99,10.440000,,2013-07-31 12:43:00,
2013-07-31 08:53:00,61.0,58.0,-100.00,East,90,4.0,-999.0,90,-99.99,,,-99.99,10.440000,,2013-07-31 12:53:00,
2013-07-31 09:00:00,61.0,59.0,-100.00,South,180,2.0,-999.0,90,0.01,,,-99.99,15.080000,,2013-07-31 13:00:00,
2013-07-31 09:53:00,61.0,59.0,-100.00,South,180,2.0,-999.0,90,0.01,,,-99.99,15.080000,,2013-07-31 13:53:00,
2013-07-31 10:00:00,62.0,59.0,-100.00,SE,135,2.0,-999.0,92,-99.99,,,-99.99,55.680000,,2013-07-31 14:00:00,
2013-07-31 10:43:00,62.0,59.0,-100.00,SE,135,2.0,-999.0,92,-99.99,,,-99.99,55.680000,,2013-07-31 14:43:00,
2013-07-31 10:53:00,62.0,59.0,-100.00,SE,135,2.0,-999.0,92,-99.99,,,-99.99,55.680000,,2013-07-31 14:53:00,
2013-07-31 11:00:00,63.0,60.0,-100.00,East,90,4.0,-999.0,92,0.03,,,-99.99,120.639999,,2013-07-31 15:00:00,
2013-07-31 11:44:00,63.0,60.0,-100.00,East,90,4.0,-999.0,92,0.03,,,-99.99,120.639999,,2013-07-31 15:44:00,
2013-07-31 11:53:00,63.0,60.0,-100.00,East,90,4.0,-999.0,92,0.03,,,-99.99,120.639999,,2013-07-31 15:53:00,
2013-07-31 12:00:00,64.0,62.0,-100.00,East,90,5.0,-999.0,92,0.01,,,-99.99,201.839996,,2013-07-31 16:00:00,
2013-07-31 12:44:00,64.0,62.0,-100.00,East,90,5.0,-999.0,92,0.01,,,-99.99,201.839996,,2013-07-31 16:44:00,
2013-07-31 12:53:00,64.0,62.0,-100.00,East,90,5.0,-999.0,92,0.01,,,-99.99,201.839996,,2013-07-31 16:53:00,
2013-07-31 13:00:00,66.0,62.0,-100.00,East,90,4.0,-999.0,89,-99.99,,,-99.99,223.880005,,2013-07-31 17:00:00,
2013-07-31 13:43:00,66.0,62.0,-100.00,East,90,4.0,-999.0,89,-99.99,,,-99.99,223.880005,,2013-07-31 17:43:00,
2013-07-31 13:53:00,66.0,62.0,-100.00,East,90,4.0,-999.0,89,-99.99,,,-99.99,223.880005,,2013-07-31 17:53:00,
2013-07-31 14:00:00,68.0,63.0,-100.00,ESE,112,4.0,-999.0,83,-99.99,,,-99.99,386.279999,,2013-07-31 18:00:00,
2013-07-31 14:43:00,68.0,63.0,-100.00,ESE,112,4.0,-999.0,83,-99.99,,,-99.99,386.279999,,2013-07-31 18:43:00,
2013-07-31 14:52:00,68.0,63.0,-100.00,ESE,112,4.0,-999.0,83,-99.99,,,-99.99,386.279999,,2013-07-31 18:52:00,
2013-07-31 15:00:00,68.0,62.0,-100.00,ESE,112,4.0,-999.0,82,-99.99,,,-99.99,187.919998,,2013-07-31 19:00:00,
2013-07-31 15:43:00,68.0,62.0,-100.00,ESE,112,4.0,-999.0,82,-99.99,,,-99.99,187.919998,,2013-07-31 19:43:00,
2013-07-31 15:53:00,68.0,62.0,-100.00,ESE,112,4.0,-999.0,82,-99.99,,,-99.99,187.919998,,2013-07-31 19:53:00,
2013-07-31 16:00:00,67.0,63.0,-100.00,SE,135,3.0,-999.0,85,-99.99,,,-99.99,110.199997,,2013-07-31 20:00:00,
2013-07-31 16:43:00,67.0,63.0,-100.00,SE,135,3.0,-999.0,85,-99.99,,,-99.99,110.199997,,2013-07-31 20:43:00,
2013-07-31 16:53:00,67.0,63.0,-100.00,SE,135,3.0,-999.0,85,-99.99,,,-99.99,110.199997,,2013-07-31 20:53:00,
2013-07-31 17:00:00,68.0,63.0,-100.00,SE,135,2.0,-999.0,83,-99.99,,,-99.99,114.839996,,2013-07-31 21:00:00,
2013-07-31 17:43:00,68.0,63.0,-100.00,SE,135,2.0,-999.0,83,-99.99,,,-99.99,114.839996,,2013-07-31 21:43:00,
2013-07-31 17:53:00,68.0,63.0,-100.00,SE,135,2.0,-999.0,83,-99.99,,,-99.99,114.839996,,2013-07-31 21:53:00,
2013-07-31 18:00:00,67.0,63.0,-100.00,WSW,247,2.0,-999.0,85,-99.99,,,-99.99,60.320000,,2013-07-31 22:00:00,
2013-07-31 18:43:00,67.0,63.0,-100.00,WSW,247,2.0,-999.0,85,-99.99,,,-99.99,60.320000,,2013-07-31 22:43:00,
2013-07-31 18:53:00,67.0,63.0,-100.00,WSW,247,2.0,-999.0,85,-99.99,,,-99.99,60.320000,,2013-07-31 22:53:00,
2013-07-31 19:00:00,67.0,63.0,-100.00,WNW,292,3.0,-999.0,88,-99.99,,,-99.99,67.279999,,2013-07-31 23:00:00,
2013-07-31 19:42:00,67.0,63.0,-100.00,WNW,292,3.0,-999.0,88,-99.99,,,-99.99,67.279999,,2013-07-31 23:42:00,
2013-07-31 19:53:00,67.0,63.0,-100.00,WNW,292,3.0,-999.0,88,-99.99,,,-99.99,67.279999,,2013-07-31 23:53:00,
2013-07-31 20:00:00,67.0,63.0,-100.00,NW,315,4.0,-999.0,88,-99.99,,,-99.99,37.119999,,2013-08-01 00:00:00,
2013-07-31 20:32:00,67.0,63.0,-100.00,NW,315,4.0,-999.0,88,-99.99,,,-99.99,37.119999,,2013-08-01 00:32:00,
2013-07-31 20:43:00,67.0,63.0,-100.00,NW,315,4.0,-999.0,88,-99.99,,,-99.99,37.119999,,2013-08-01 00:43:00,
2013-07-31 20:52:00,67.0,63.0,-100.00,NW,315,4.0,-999.0,88,-99.99,,,-99.99,37.119999,,2013-08-01 00:52:00,
2013-07-31 21:00:00,65.0,62.0,-100.00,NW,315,1.0,-999.0,90,-99.99,,,-99.99,9.280000,,2013-08-01 01:00:00,
2013-07-31 21:33:00,65.0,62.0,-100.00,NW,315,1.0,-999.0,90,-99.99,,,-99.99,9.280000,,2013-08-01 01:33:00,
2013-07-31 21:43:00,65.0,62.0,-100.00,NW,315,1.0,-999.0,90,-99.99,,,-99.99,9.280000,,2013-08-01 01:43:00,
2013-07-31 21:53:00,65.0,62.0,-100.00,NW,315,1.0,-999.0,90,-99.99,,,-99.99,9.280000,,2013-08-01 01:53:00,
2013-07-31 22:00:00,65.0,62.0,-100.00,WNW,292,4.0,-999.0,92,-99.99,,,-99.99,0.000000,,2013-08-01 02:00:00,
2013-07-31 22:43:00,65.0,62.0,-100.00,WNW,292,4.0,-999.0,92,-99.99,,,-99.99,0.000000,,2013-08-01 02:43:00,
2013-07-31 22:53:00,65.0,62.0,-100.00,WNW,292,4.0,-999.0,92,-99.99,,,-99.99,0.000000,,2013-08-01 02:53:00,
2013-07-31 23:00:00,63.0,61.0,-100.00,WSW,247,1.0,-999.0,91,0.01,,,-99.99,0.000000,,2013-08-01 03:00:00,
2013-07-31 23:43:00,63.0,61.0,-100.00,WSW,247,1.0,-999.0,91,0.01,,,-99.99,0.000000,,2013-08-01 03:43:00,
2013-07-31 23:53:00,63.0,61.0,-100.00,WSW,247,1.0,-999.0,91,0.01,,,-99.99,0.000000,,2013-08-01 03:53:00,